www.pogodaiklimat.ru

Погода и климат >> Архив погоды >> Россия >> Чувашия >> Чебоксары


АРХИВ ПОГОДЫ в Чебоксарах

Время (UTC), дата Ветер
(напр.,м/с)
 
Видим.   Явления Облачность Т
(С)
Тd
(С)
f
(%)
Тe
(С)
Тes
(С)
Комфортность P
(гПа)
Po
(гПа)
Тmin
(С)
Tmax
(С)
R
(мм)
R24
(мм)
S
(см)
18 12.07 штиль 0
{3}
10 км {ливн. осадки} 10/8 1000 м
[Cb calv Cs]
+18.7 +14.8 78 +20 +20 по сезону 1011.1 992.1
21 12.07 СВ 1-1
{3}
10 км 8/3 1000 м
[Sc Ac trans Ci fib]
+16.9 +14.9 88 +18 +18 по сезону 1011.0 991.9
00 13.07 СЗ 1-1
{1}
10 км 6/3 600 м
[Cb calv Ci fib]
+15.6 +14.4 93 +16 +16 по сезону 1010.8 991.7
03 13.07 С 2-3
{3}
10 км 9/3 600 м
[Sc Ac trans]
+14.8 +13.7 93 +14 +15 холодно 1010.9 991.6 +14.4
06 13.07 С 2-3
{3}
10 км 9/3 600 м
[Cu med, cong Ac trans]
+20.2 +15.5 74 +23 +27 комфорт 1009.9 991.0
09 13.07 СВ 2-4
{5}
10 км 9/8 600 м
[Cb calv Ac trans Ci sp]
+23.4 +15.4 61 +28 +30 душно 1009.2 990.5
12 13.07 С 4-6
{8}
10 км 6/4 600 м
[Cb calv Ac trans]
+23.8 +16.3 63 +27 +30 жарко 1008.8 990.2
15 13.07 С 3-4
{6}
10 км 9/3 600 м
[Cb calv Ac trans Ci sp]
+21.6 +15.4 68 +25 +26 комфорт 1008.7 990.0 +24.5
18 13.07 С 2-3
{4}
10 км 8/4 600 м
[Cb calv Ac trans]
+19.5 +16.0 80 +22 +22 комфорт 1009.5 990.6
21 13.07 С 2-2
{3}
10 км 8/4 600 м
[Cb calv Ac trans]
+17.4 +15.5 89 +18 +18 по сезону 1009.5 990.5
00 14.07 СВ 1-1
{2}
200 м туман ?/? +17.8 +17.8 100 +19 +19 тепло 1009.5 990.5
03 14.07 С 1-2
{2}
200 м туман ?/? +17.9 +17.9 100 +19 +19 по сезону 1009.8 990.8 +17.1
06 14.07 С 2-3
{3}
10 км {туман} 6/4 300 м
[Sc Ac trans]
+22.0 +16.2 70 +26 +31 душно 1009.7 990.8
09 14.07 СВ 3-5
{5}
10 км 6/6 600 м
[Cb calv]
+25.4 +15.1 53 +28 +33 жарко 1008.8 990.3
12 14.07 Ю 1-2
{5}
10 км 8/6 600 м
[Cb calv Ac trans]
+27.7 +13.8 42 +30 +33 жарко 1007.9 989.5
15 14.07 СВ 2-3
{5}
10 км гроза без осадков 6/6 600 м
[Cb calv]
+25.2 +15.7 56 +28 +29 жарко 1007.8 989.3 +27.7
18 14.07 ЮВ 2-2
{9}
10 км {гроза, ливн. осадки} 4/3 1000 м
[Cb calv Ac trans]
+21.9 +15.8 68 +26 +26 душно 1009.1 990.3
21 14.07 штиль 0-1
{2}
10 км 4/3 1000 м
[Cb calv Ac trans]
+19.5 +15.2 76 +21 +21 комфорт 1009.2 990.3
00 15.07 В 1-2
{2}
10 км 3/0
[Ac trans]
+19.2 +16.5 84 +22 +22 комфорт 1009.8 990.7
03 15.07 В 1-2
{2}
10 км 3/0
[Ac trans]
+20.7 +17.4 81 +25 +28 комфорт 1010.1 991.1 +17.6 0.0
06 15.07 В 1-3
{4}
10 км 3/0
[Ci fib]
+25.2 +16.6 59 +29 +40 душно 1009.5 991.0
09 15.07 ЮВ 3-5
{7}
10 км 4/3 1000 м
[Cb calv Ci fib]
+27.6 +15.8 49 +31 +39 душно 1009.3 990.9
12 15.07 В 4-6
{9}
10 км в посл. час гроза 6/5 1000 м
[Cb calv Ci fib]
+27.3 +16.1 50 +31 +34 душно 1009.2 990.8
15 15.07 В 3-5
{7}
10 км 6/4 1000 м
[Cb calv Ac trans Ci fib]
+26.1 +17.1 58 +30 +31 душно 1009.0 990.5 +28.1
18 15.07 В 2-3
{6}
10 км 4/3 1000 м
[Cb calv Ac trans]
+22.6 +17.8 74 +28 +28 душно 1009.4 990.7
21 15.07 СВ 1-2
{3}
10 км 3/0
[Ac trans]
+20.4 +18.3 88 +25 +25 комфорт 1009.9 991.0
00 16.07 В 1-2
{2}
4000 м дымка 3/0
[Ac trans]
+18.6 +17.4 93 +21 +21 комфорт 1010.0 991.0
03 16.07 В 2-3
{3}
10 км 3/0
[Ac trans]
+20.5 +17.9 85 +25 +27 комфорт 1010.3 991.4 +17.8
06 16.07 В 3-4
{5}
10 км ясно +24.9 +17.9 65 +29 +38 душно 1009.8 991.1
09 16.07 В 3-5
{6}
10 км 4/4 600 м
[Cb calv]
+27.8 +17.2 52 +32 +39 душно 1009.1 990.7
12 16.07 В 3-5
{9}
10 км гроза без осадков 6/6 600 м
[Cb calv]
+27.2 +17.2 54 +31 +34 душно 1008.7 990.3
15 16.07 СВ 3-5
{5}
10 км {гроза} 6/3 600 м
[Cb calv Ci fib]
+26.9 +17.7 57 +31 +32 душно 1008.4 989.9 +28.9
18 16.07 В 2-2
{6}
10 км {гроза} 3/3 1000 м
[Sc Ac trans]
+22.2 +18.6 80 +27 +27 душно 1009.0 990.2
21 16.07 СВ 3-4
{5}
10 км 3/0
[Ac trans]
+20.3 +18.5 89 +24 +24 комфорт 1009.1 990.2
00 17.07 СВ 3-3
{4}
10 км ясно +18.3 +16.9 92 +19 +19 тепло 1008.7 989.7
03 17.07 СВ 3-4
{4}
10 км 3/0
[Ac trans]
+20.5 +17.9 85 +24 +26 комфорт 1008.4 989.5 +17.9
06 17.07 В 3-5
{5}
10 км 4/0
[Ac trans]
+24.8 +16.9 61 +28 +35 жарко 1007.4 989.0
09 17.07 В 6-8
{9}
10 км 4/0
[Ac trans Ci sp]
+28.2 +15.7 47 +31 +36 душно 1006.6 988.3
12 17.07 В 5-8
{10}
10 км 9/4 1000 м
[Cb calv Ac trans Cc]
+28.0 +14.6 44 +30 +32 жарко 1006.2 987.9
15 17.07 В 6-10
{11}
10 км 9/5 1000 м
[Cb calv Ac trans Ci sp]
+27.2 +13.7 43 +29 +29 жарко 1005.2 986.9 +29.7
18 17.07 ЮВ 4-6
{10}
10 км 9/5 1000 м
[Cb calv Ac trans Ci sp]
+21.7 +16.1 70 +25 +25 комфорт 1006.5 987.8
21 17.07 В 4-6
{9}
10 км 9/5 1000 м
[Cb calv Ac trans Ci sp]
+19.4 +16.2 82 +21 +21 комфорт 1005.6 986.8
00 18.07 В 4-7
{9}
10 км слабый ливневой дождь 9/8 600 м
[Cb cap Ac trans]
+18.6 +16.8 89 +19 +19 тепло 1004.5 985.7
03 18.07 В 5-8
{10}
10 км в посл. час ливневой дождь 10/8 200 м
[Cb calv As op]
+18.7 +16.9 89 +19 +19 по сезону 1004.3 985.5 +18.6 3
06 18.07 В 6-9
{11}
10 км в посл. час ливневой дождь 9/8 200 м
[St Ac trans]
+18.8 +17.2 90 +20 +20 прохладно 1005.7 986.8
09 18.07 В 5-8
{9}
10 км 9/8 300 м
[Cb calv Ac trans]
+20.9 +17.7 82 +25 +26 комфорт 1005.4 986.6
12 18.07 В 5-8
{10}
10 км 8/8 300 м
[Cb calv]
+23.5 +18.1 72 +28 +29 душно 1005.0 986.5
15 18.07 В 5-7
{8}
10 км 8/6 300 м
[Cb calv Ac trans]
+23.4 +17.4 69 +29 +29 душно 1004.3 985.8 +24.4 2
18 18.07 СВ 2-4
{7}
10 км {ливн. осадки} 8/6 300 м
[Cb calv Ac trans]
+20.0 +17.4 85 +23 +23 комфорт 1005.4 986.6
21 18.07 В 3-4
{6}
10 км 6/3 300 м
[Sc Ac trans]
+19.0 +16.9 88 +21 +21 комфорт 1004.8 985.9
00 19.07 В 3-4
{6}
10 км 10/10 200 м
[St]
+18.6 +17.1 91 +20 +20 тепло 1005.0 986.1
03 19.07 В 3-4
{4}
10 км 10/10 200 м
[St]
+19.3 +17.7 90 +22 +22 комфорт 1005.3 986.5 +18.6 0.0
06 19.07 В 3-4
{5}
10 км в посл. час морось 10/10 200 м
[St]
+20.3 +17.9 86 +24 +24 комфорт 1005.4 986.6
09 19.07 СВ 3-5
{5}
10 км 9/8 1000 м
[Cb calv Ac trans Ci sp]
+23.5 +18.1 72 +28 +30 душно 1005.2 986.7
12 19.07 ЮВ 3-4
{6}
10 км в посл. час гроза {ливн. осадки} 8/6 1000 м
[Cb calv Ac trans Ci sp]
+20.1 +17.8 87 +24 +26 комфорт 1006.2 987.4
15 19.07 ЮВ 4-5
{7}
10 км 8/5 1000 м
[Cb calv Ac trans Ci sp]
+21.9 +17.5 76 +26 +27 душно 1006.9 988.1 +24.2 8

 

Местоположение метеостанции Чебоксары (Чувашия, Россия): широта 56.08 долгота 47.33 высота над уровнем моря 163 м.

В архиве по умолчанию представлена погода в Чебоксарах за последнюю неделю. Архивные данные за месяц целиком и за предыдущие месяцы, начиная с января 2011 года, Вы можете получить, выбрав интересующий диапазон дат из раскрывающегося списка и нажав кнопку "Ввод!".


*Определитесь, кто Вы:
робот инопланетянин человек

Внимание! Время в таблицах - всемирное. Для получения местного времени необходимо прибавить поправку, которая в Чебоксарах равна 3 ч.

Смотрите также архив погоды в соседних городах и на ближайших метеорологических станциях:

Погода в Козьмодемьянске (Марий-Эл, Россия) (54 км)
Погода в Канаше (Чувашия, Россия) (63 км)
Погода в Йошкар-Оле (Марий-Эл, Россия) (67 км)
Погода в Вязовых (Татарстан, Россия) (80 км)
Погода в Больших Кайбицах (Татарстан, Россия) (92 км)
Погода в Санчурске (Кировская область, Россия) (100 км)
Погода в Морках (Марий-Эл, Россия) (111 км)
Погода в Батырево (Чувашия, Россия) (114 км)
Погода в Порецком (Чувашия, Россия) (118 км)
Погода в Казани (Татарстан, Россия) (123 км)

Пояснения к столбцам:

Ветер - указаны скорость ветра в м/с - средняя за 10 мин, порывы в срок и между сроками (в фигурных скобках) и направление, откуда дует ветер: С - северный, СВ - северо-восточный, В - восточный, ЮВ - юго-восточный, Ю - южный, ЮЗ - юго-западный, З - западный, СЗ - северо-западный.
Видимость - горизонтальная дальность видимости в метрах или километрах. При видимости от 1 до 10 км при отсутствии осадков обычно наблюдается дымка, при ухудшении видимости до 1 км и менее - туман. В сухую погоду видимость может ухудшаться дымом, пылью или мглою.
Явления - указаны атмосферные явления, наблюдавшиеся в срок или в последний час перед сроком; фигурными скобками обозначены явления, наблюдавшиеся между сроками (за 1-3 часа до срока); квадратными скобками обозначены град или гололедные отложения с указанием их диаметра в мм.
Облачность - указаны через наклонную черту общая и нижняя облачность в баллах и высота нижней границы облаков в метрах; квадратными скобками обозначены формы облаков: Ci - перистые, Cs - перисто-слоистые, Cc - перисто-кучевые, Ac - высококучевые, As - высокослоистые, Sc - слоисто-кучевые, Ns - слоисто-дождевые, Cu - кучевые, Cb - кучево-дождевые. Подробнее классификацию облаков см. в Атласе облаков (PDF).
T - Температура воздуха - температура, измеренная на высоте 2 м над землей.
Td - Температура точки росы - температура, при понижении до которой содержащийся в воздухе водяной пар достигнет насыщения.
f - Относительная влажность воздуха - влажноcть воздуха, измеренная на высоте 2 м над землей.
Te - Эффективная температура - температура, которую ощущает одетый по сезону человек в тени. Характеристика душности погоды. При расчете учитывается влияние влажности воздуха и скорости ветра на теплоощущения человека.
Tes - Эффективная температура на солнце - температура, которую ощущает человек, с поправкой на солнечный нагрев. Характеристика знойности погоды. Зависит от высоты солнца над горизонтом, облачности и скорости ветра. Ночью, в пасмурную погоду, а также при ветре 12 м/с и более поправка равна нулю.
P - Атмосферное давление - приведенное к уровню моря атмосферное давление.
Po - Атмосферное давление - измеренное на уровне метеостанции атмосферное давление.
Tmin - Минимальная температура - минимум температуры воздуха на высоте 2 м над землей.
Tmax - Максимальная температура - максимум температуры воздуха на высоте 2 м над землей.
R - Количество осадков - Количество выпавших осадков за период времени, мм. При наведении курсора мыши на число - период времени, за который выпало указанное количество осадков.
R24 - Количество осадков - Количество выпавших осадков за 24 часа, мм.
S - Снежный покров - Высота снежного покрова, см. При наведении курсора мыши на число - состояние снежного покрова и степень покрытия местности в баллах.